Date String (YYYY-MM-DD hh:mm:ss) UTC,Instrument flags,absolute air pressure of the measurement (hPa),sample flow rate (lpm),inlet stack bypass flow (lpm),air temperature of the measurement (°C),ambient temperature measured by the external sensor (°C),aerosol sample conditioner tube jacket temperature (°C),OPC LED temperature (°C),internal box temperature (°C),relative humidity of the measurement (%),span deviation,mass concentration of particles derived from Lorenz-Mie calculation of OPC scattering (μg/m³),mass concentration of particles derived from Lorenz-Mie calculation of OPC scattering (μg/m³),mass concentration of particles derived from Lorenz-Mie calculation of OPC scattering (μg/m³)
DateTimeUTC,F1_M11,P_M11,Q1_M11,Q2_M11,T1_M11,T2_M11,T3_M11,T4_M11,T5_M11,U1_M11,ZSPAN_M11,X0_M11,X2_M11,X1_M11
2024-02-05 23:00:00,SystemResetWarning,0827.7,5.00,000.00,024.8,024.3,000.0,033.1,026.7,14.6,0003.0,0010.27,0005.96,0005.62
2024-02-05 23:01:00,SystemResetWarning,0827.7,5.01,000.00,024.9,024.3,000.0,033.1,026.7,14.5,0002.5,0010.26,0006.01,0005.64
2024-02-05 23:02:00,SystemResetWarning,0827.7,5.01,000.00,024.9,024.3,000.0,033.1,026.7,14.5,0002.1,0010.36,0006.07,0005.67
2024-02-05 23:03:00,SystemResetWarning,0827.6,5.00,000.00,024.9,024.3,000.0,033.1,026.7,14.6,0001.7,0010.44,0006.10,0005.69
2024-02-05 23:04:00,SystemResetWarning,0827.5,4.99,000.00,024.9,024.3,000.0,033.2,026.7,14.6,0002.0,0010.19,0006.12,0005.72
2024-02-05 23:05:00,SystemResetWarning,0827.5,4.98,000.00,024.9,024.3,000.0,033.2,026.7,14.6,0001.5,0010.23,0006.13,0005.73
2024-02-05 23:06:00,SystemResetWarning,0827.5,4.99,000.00,024.9,024.3,000.0,033.2,026.7,14.5,0001.5,0010.64,0006.13,0005.75
2024-02-05 23:07:00,SystemResetWarning,0827.7,5.00,000.00,024.9,024.3,000.0,033.2,026.7,14.4,0002.0,0010.60,0006.14,0005.77
2024-02-05 23:08:00,SystemResetWarning,0827.7,5.00,000.00,024.9,024.3,000.0,033.2,026.7,14.4,0001.9,0010.80,0006.16,0005.79
2024-02-05 23:09:00,SystemResetWarning,0827.7,5.00,000.00,024.9,024.3,000.0,033.2,026.7,14.5,0002.0,0010.29,0006.17,0005.80
2024-02-05 23:10:00,SystemResetWarning,0827.7,5.01,000.00,024.9,024.3,000.0,033.2,026.7,14.5,0001.8,0010.68,0006.17,0005.82
2024-02-05 23:11:00,SystemResetWarning,0827.7,5.00,000.00,024.9,024.3,000.0,033.2,026.8,14.5,0001.7,0011.44,0006.19,0005.85
2024-02-05 23:12:00,SystemResetWarning,0827.7,5.00,000.00,024.9,024.3,000.0,033.2,026.8,14.5,0002.0,0011.45,0006.21,0005.90
2024-02-05 23:13:00,SystemResetWarning,0827.7,5.01,000.00,024.9,024.3,000.0,033.2,026.8,14.4,0002.1,0011.53,0006.26,0005.95
2024-02-05 23:14:00,SystemResetWarning,0827.7,5.00,000.00,024.9,024.3,000.0,033.2,026.8,14.4,0001.7,0011.57,0006.34,0006.00
2024-02-05 23:15:00,SystemResetWarning,0827.8,5.00,000.00,024.9,024.3,000.0,033.2,026.8,14.4,0001.3,0011.62,0006.38,0006.04
2024-02-05 23:16:00,SystemResetWarning,0827.7,5.00,000.00,024.9,024.3,000.0,033.2,026.8,14.4,0001.1,0011.52,0006.42,0006.10
2024-02-05 23:17:00,SystemResetWarning,0827.8,4.99,000.00,024.9,024.3,000.0,033.2,026.8,14.4,0001.8,0010.86,0006.46,0006.15
2024-02-05 23:18:00,SystemResetWarning,0827.8,5.00,000.00,024.9,024.3,000.0,033.3,026.8,14.4,0001.6,0010.90,0006.51,0006.20
2024-02-05 23:19:00,SystemResetWarning,0827.8,5.01,000.00,024.9,024.3,000.0,033.3,026.8,14.4,0001.7,0010.97,0006.56,0006.24
2024-02-05 23:20:00,SystemResetWarning,0827.8,5.00,000.00,024.9,024.3,000.0,033.3,026.8,14.4,0001.7,0010.92,0006.64,0006.30
2024-02-05 23:21:00,SystemResetWarning,0827.8,5.00,000.00,025.0,024.3,000.0,033.3,026.8,14.4,0001.5,0010.66,0006.67,0006.33
2024-02-05 23:22:00,SystemResetWarning,0827.8,4.99,000.00,025.0,024.3,000.0,033.3,026.8,14.5,0001.2,0010.78,0006.72,0006.36
2024-02-05 23:23:00,SystemResetWarning,0827.8,5.00,000.00,025.0,024.3,000.0,033.3,026.8,14.5,0001.1,0010.86,0006.74,0006.37
2024-02-05 23:24:00,SystemResetWarning,0827.8,5.01,000.00,025.0,024.3,000.0,033.3,026.8,14.5,0001.7,0010.73,0006.71,0006.37
2024-02-05 23:25:00,SystemResetWarning,0827.8,5.00,000.00,025.0,024.3,000.0,033.3,026.8,14.5,0002.2,0010.58,0006.65,0006.35
2024-02-05 23:26:00,SystemResetWarning,0827.7,4.99,000.00,025.0,024.3,000.0,033.3,026.8,14.5,0002.3,0010.59,0006.65,0006.36
2024-02-05 23:27:00,SystemResetWarning,0827.8,4.99,000.00,025.0,024.3,000.0,033.3,026.8,14.6,0002.6,0010.73,0006.65,0006.34
2024-02-05 23:28:00,SystemResetWarning,0827.7,5.00,000.00,025.0,024.3,000.0,033.3,026.8,14.7,0002.5,0010.74,0006.66,0006.35
2024-02-05 23:29:00,SystemResetWarning,0827.7,5.01,000.00,025.0,024.3,000.0,033.3,026.8,14.7,0001.9,0011.06,0006.69,0006.36
2024-02-05 23:30:00,SystemResetWarning,0827.7,5.01,000.00,025.0,024.3,000.0,033.3,026.8,14.7,0001.9,0010.95,0006.68,0006.37
2024-02-05 23:31:00,SystemResetWarning,0827.7,4.99,000.00,025.0,024.3,000.0,033.3,026.8,14.7,0001.9,0010.74,0006.67,0006.37
2024-02-05 23:32:00,SystemResetWarning,0827.7,4.99,000.00,025.0,024.3,000.0,033.3,026.8,14.7,0001.9,0010.73,0006.68,0006.39
2024-02-05 23:33:00,SystemResetWarning,0827.7,5.00,000.00,025.0,024.3,000.0,033.3,026.8,14.7,0002.2,0009.81,0006.68,0006.41
2024-02-05 23:34:00,SystemResetWarning,0827.7,5.00,000.00,025.0,024.3,000.0,033.3,026.8,14.7,0002.1,0009.78,0006.71,0006.44
2024-02-05 23:35:00,SystemResetWarning,0827.7,5.00,000.00,025.0,024.3,000.0,033.3,026.8,14.7,0001.5,0010.30,0006.73,0006.45
2024-02-05 23:36:00,SystemResetWarning,0827.8,5.01,000.00,025.0,024.3,000.0,033.3,026.8,14.7,0001.1,0010.42,0006.79,0006.48
2024-02-05 23:37:00,SystemResetWarning,0827.7,5.00,000.00,025.0,024.3,000.0,033.4,026.8,14.7,0001.1,0010.36,0006.80,0006.49
2024-02-05 23:38:00,SystemResetWarning,0827.8,5.00,000.00,025.0,024.3,000.0,033.3,026.8,14.6,0000.7,0010.30,0006.80,0006.49
2024-02-05 23:39:00,SystemResetWarning,0827.8,5.01,000.00,025.0,024.3,000.0,033.4,026.8,14.6,0000.5,0011.61,0006.80,0006.49
2024-02-05 23:40:00,SystemResetWarning,0827.8,5.00,000.00,025.0,024.3,000.0,033.4,026.8,14.6,0000.9,0011.95,0006.77,0006.48
2024-02-05 23:41:00,SystemResetWarning,0827.8,5.00,000.00,025.0,024.3,000.0,033.4,026.8,14.7,0000.6,0012.45,0006.75,0006.45
2024-02-05 23:42:00,SystemResetWarning,0827.7,5.00,000.00,025.0,024.3,000.0,033.4,026.8,14.8,0000.6,0013.56,0006.72,0006.43
2024-02-05 23:43:00,SystemResetWarning,0827.8,4.99,000.00,025.0,024.3,000.0,033.4,026.8,15.0,0000.8,0014.05,0006.73,0006.42
2024-02-05 23:44:00,SystemResetWarning,0827.8,4.99,000.00,025.0,024.3,000.0,033.4,026.8,15.4,0000.4,0014.25,0006.77,0006.43
2024-02-05 23:45:00,SystemResetWarning,0827.8,5.00,000.00,025.0,024.3,000.0,033.4,026.8,15.3,0000.2,0014.26,0006.75,0006.40
2024-02-05 23:46:00,SystemResetWarning,0827.8,5.00,000.00,025.0,024.3,000.0,033.4,026.8,15.1,0000.5,0013.76,0006.74,0006.38
2024-02-05 23:47:00,SystemResetWarning,0827.8,5.00,000.00,025.0,024.3,000.0,033.4,026.8,15.0,0000.9,0013.85,0006.74,0006.36
2024-02-05 23:48:00,SystemResetWarning,0827.8,5.00,000.00,025.0,024.3,000.0,033.4,026.8,15.0,0000.7,0014.08,0006.74,0006.36
2024-02-05 23:49:00,SystemResetWarning,0827.8,4.99,000.00,025.0,024.3,000.0,033.4,026.8,15.0,0001.0,0014.26,0006.71,0006.34
2024-02-05 23:50:00,SystemResetWarning,0827.7,5.00,000.00,025.0,024.3,000.0,033.4,026.8,15.1,0001.5,0013.42,0006.71,0006.33
2024-02-05 23:51:00,SystemResetWarning,0827.7,5.00,000.00,025.0,024.3,000.0,033.4,026.8,15.0,0001.3,0012.88,0006.72,0006.32
2024-02-05 23:52:00,SystemResetWarning,0827.7,4.99,000.00,025.0,024.3,000.0,033.4,026.8,15.0,0001.3,0012.22,0006.71,0006.32
2024-02-05 23:53:00,SystemResetWarning,0827.7,5.00,000.00,025.0,024.2,000.0,033.4,026.8,15.1,0001.3,0011.34,0006.70,0006.32
2024-02-05 23:54:00,SystemResetWarning,0827.7,5.00,000.00,025.0,024.2,000.0,033.4,026.8,15.3,0001.2,0011.44,0006.71,0006.30
2024-02-05 23:55:00,SystemResetWarning,0827.7,5.00,000.00,025.0,024.2,000.0,033.4,026.8,15.2,0000.4,0011.31,0006.64,0006.26
2024-02-05 23:56:00,SystemResetWarning,0827.7,5.00,000.00,024.9,024.2,000.0,033.4,026.8,15.1,0000.8,0011.45,0006.63,0006.26
2024-02-05 23:57:00,SystemResetWarning,0827.7,5.01,000.00,024.9,024.2,000.0,033.4,026.8,15.1,0001.3,0011.47,0006.66,0006.28
2024-02-05 23:58:00,SystemResetWarning,0827.7,5.00,000.00,024.9,024.2,000.0,033.4,026.8,15.3,0001.1,0011.40,0006.66,0006.29
2024-02-05 23:59:00,SystemResetWarning,0827.7,5.00,000.00,024.9,024.2,000.0,033.4,026.8,15.3,0001.4,0011.16,0006.66,0006.29
